Wind_Speed
18 15 15 17 19 20 21 22 22 21 19 18 18 17 17 18 20 19 17 22 27 31 28 28 23 21 18 20 25 22 27 25 15 17 18 28 23 20 22 29 30 31 25 33 29 31 29 29 25 21 23 27 26 31
18 16 15 17 19 20 21 22 21 20 19 19 18 18 19 20 21 21 23 21 23 28 30 25 21 22 19 18 27 28 32 32 28 23 21 16 24 36 27 27 31 24 23 27 25 32 42 39 37 37 32 41 44 42
18 17 15 17 19 20 21 21 20 20 19 18 18 19 20 21 22 23 20 18 19 26 29 24 8 18 25 25 23 27 30 31 34 34 38 37 38 32 33 30 34 43 40 39 37 46 45 43 40 47 45 38 40 43
20 18 16 19 20 21 21 21 20 19 18 18 18 19 18 18 18 18 18 14 17 21 34 34 22 9 13 16 30 31 17 20 25 31 41 42 44 33 43 40 39 48 46 50 44 49 52 49 43 39 38 36 37 37
22 19 17 20 22 22 20 19 19 19 18 19 19 17 15 16 16 15 16 15 17 20 31 43 41 30 16 21 23 21 26 23 23 30 35 43 46 43 49 47 56 50 55 52 58 52 49 46 41 39 38 41 40 37
24 20 19 20 20 19 19 19 19 19 18 19 18 16 15 15 15 14 19 16 16 18 31 40 34 39 9 8 16 17 22 29 31 31 36 41 39 39 40 53 55 49 51 54 57 51 53 49 41 38 35 31 33 33
25 21 21 21 19 19 19 19 18 18 17 17 16 17 17 16 16 16 19 17 16 16 21 25 22 8 12 25 22 17 15 23 28 34 40 39 40 42 50 59 52 56 60 60 58 51 49 40 42 36 38 35 37 37
24 23 22 21 20 19 19 18 17 16 16 15 15 16 17 16 17 16 15 18 20 24 26 18 25 29 22 21 12 15 15 18 26 32 36 39 41 45 51 54 54 49 49 50 47 43 41 28 26 31 32 33 33 31
24 25 24 23 21 20 19 17 15 14 14 14 14 12 13 13 11 9 13 17 19 21 18 19 29 27 12 14 23 26 25 28 28 32 32 35 40 41 46 47 53 56 56 54 43 39 40 35 29 25 23 24 30 33
25 25 24 23 21 20 18 16 13 14 14 12 9 10 8 7 7 9 10 8 8 15 26 27 23 27 20 25 26 24 14 13 21 27 19 28 41 36 31 40 50 43 42 41 36 37 32 38 32 27 26 25 29 31
24 23 23 23 22 20 18 15 15 15 12 11 13 13 7 6 7 6 6 6 8 7 9 6 5 6 9 11 17 11 10 10 12 13 17 21 22 25 49 41 32 26 27 30 25 14 16 27 34 33 31 29 28 28
23 23 23 22 22 21 18 16 19 16 13 11 13 13 13 10 8 7 8 8 9 7 6 5 7 10 12 16 11 7 9 7 7 13 11 6 24 39 38 34 27 26 25 24 22 23 14 8 13 20 20 19 26 30
23 22 23 23 22 22 19 22 22 17 18 9 17 14 9 10 9 10 10 9 7 5 7 8 12 18 19 9 7 6 5 8 17 6 7 14 38 34 28 28 30 28 27 28 27 27 30 32 29 24 25 23 24 25
23 23 23 23 22 23 24 25 23 18 16 11 14 12 10 9 9 15 13 8 7 7 13 18 16 10 10 6 6 5 6 9 5 5 8 35 28 21 24 28 31 33 34 32 30 30 33 35 37 38 38 39 39 38
25 24 23 23 24 25 27 28 25 22 19 19 7 8 13 13 12 9 8 8 10 15 16 7 3 5 4 4 4 5 4 5 5 9 30 21 12 17 18 25 28 30 32 33 34 36 37 38 39 40 36 31 26 26
25 24 24 25 26 27 28 29 27 25 25 19 14 8 8 9 11 8 7 14 14 9 7 5 4 3 4 3 4 4 4 5 14 27 16 5 5 10 14 15 23 21 22 23 24 25 25 21 21 24 27 26 24 21
23 24 27 27 28 29 30 29 28 28 23 26 25 24 21 17 14 15 15 10 9 9 6 3 3 3 3 4 4 5 7 20 24 13 2 3 4 5 8 11 13 15 17 18 20 18 17 19 20 20 19 22 19 17
25 28 28 28 28 30 32 32 26 27 32 30 27 23 19 18 18 16 14 13 12 10 7 7 5 6 5 6 10 13 13 10 4 5 4 3 5 9 12 15 15 13 13 13 13 14 16 17 16 16 16 16 14 13
25 27 30 30 29 31 33 34 34 24 27 29 29 26 21 21 19 17 15 16 12 11 9 8 6 8 10 11 11 9 6 2 4 4 7 14 17 16 15 13 13 13 14 14 14 13 14 16 14 13 11 11 9 9
22 27 28 31 31 29 28 20 31 35 30 20 20 18 16 17 17 16 18 19 16 16 16 15 15 12 9 9 6 3 1 5 10 11 11 10 10 10 10 10 9 8 8 8 9 10 10 10 10 9 8 8 8 7
20 25 30 32 32 34 28 19 20 32 36 37 32 21 15 16 16 19 21 20 21 22 19 15 13 11 10 8 5 3 4 6 9 11 8 7 6 6 7 7 7 7 7 7 8 6 6 7 6 5 5 6 6 6
17 20 28 33 34 36 35 28 18 16 19 20 22 26 28 22 17 16 16 21 24 21 16 14 11 9 9 9 8 6 6 8 9 10 8 7 5 3 3 2 3 3 4 4 4 3 2 3 2 2 2 4 4 3
17 20 27 32 28 29 28 32 25 23 21 22 21 16 20 21 20 15 18 21 21 16 14 14 13 12 11 11 10 8 8 8 8 9 8 7 5 3 2 1 1 2 1 1 1 3 4 5 5 4 2 0 1 1
19 22 24 24 21 21 26 25 39 24 24 22 20 21 22 21 19 20 24 24 21 19 18 16 16 16 14 14 12 10 10 10 10 9 9 7 6 5 4 3 2 2 2 4 4 5 6 7 7 6 5 3 1 3
16 21 16 20 24 24 29 28 30 36 34 17 19 21 22 21 20 23 26 23 19 19 20 17 16 14 14 15 14 14 13 12 11 11 10 9 8 6 6 5 5 4 5 5 5 5 5 6 7 7 6 5 3 3
19 18 15 17 27 28 29 32 30 31 33 32 30 25 23 22 22 14 23 18 14 15 15 15 15 16 18 17 17 15 13 14 15 14 13 11 10 10 9 7 7 6 7 6 5 4 4 5 6 7 7 6 5 5
20 13 24 20 23 26 27 28 28 27 26 26 32 26 28 26 18 25 26 19 12 11 13 14 16 18 17 16 15 13 14 15 16 18 18 17 16 15 14 12 10 10 7 7 5 5 5 5 6 7 7 7 7 7
22 21 21 26 25 27 26 29 28 29 31 25 24 30 29 24 27 25 14 8 8 14 17 17 19 17 16 18 17 16 16 16 17 20 20 20 21 20 18 16 13 12 10 8 7 6 6 6 6 7 7 9 10 10
24 21 22 27 28 27 28 27 28 28 27 28 28 29 29 29 27 25 23 20 17 17 17 17 18 19 19 18 18 19 19 18 19 18 16 19 22 23 23 20 17 15 14 11 10 9 8 7 7 8 10 10 11 10
30 24 22 25 28 32 30 28 27 26 24 25 25 25 26 26 25 25 24 22 20 18 16 18 18 18 18 17 17 18 16 17 17 17 16 16 17 19 21 22 22 20 19 16 14 13 11 9 7 8 8 10 10 10
30 28 28 24 26 29 28 28 28 25 25 25 25 24 23 23 21 20 18 19 19 18 17 15 16 18 18 17 16 16 16 15 15 15 16 16 18 17 17 19 21 21 21 20 18 15 14 12 11 11 11 12 13 12
23 28 30 29 30 24 23 26 26 25 24 24 25 25 26 25 24 23 21 20 20 19 18 17 17 16 16 16 16 16 15 15 15 15 15 16 18 20 19 17 18 18 18 19 19 18 16 14 12 11 12 13 13 13
25 24 27 29 27 27 28 24 25 26 26 25 25 27 28 27 26 25 22 22 20 19 19 19 18 17 17 16 15 15 14 14 14 13 13 14 16 18 20 20 17 17 16 17 18 17 16 14 13 12 12 12 13 13
Wind_Direction
234 230 233 237 236 234 235 238 240 245 242 237 237 239 246 255 262 266 265 264 270 276 283 283 293 293 300 292 289 304 294 292 283 274 272 268 256 262 260 272 266 263 258 249 249 250 258 267 283 271 276 285 281 291
230 228 228 236 235 234 236 239 239 236 233 234 239 246 252 257 262 266 269 265 272 274 284 292 293 298 299 297 290 285 278 270 262 269 274 277 285 291 276 282 281 270 269 272 248 247 257 261 273 273 268 275 285 294
231 227 223 233 234 235 237 236 234 233 234 241 248 252 256 257 260 265 262 263 264 271 286 289 306 294 295 289 281 281 296 286 279 278 274 273 273 281 274 275 283 286 286 269 270 275 275 277 282 268 268 275 284 290
231 224 220 231 235 235 234 234 232 235 241 246 250 257 258 255 251 250 254 263 254 274 284 292 292 290 296 282 293 293 291 289 282 273 268 266 265 270 273 278 277 280 282 277 271 277 279 275 274 277 267 273 280 289
228 221 222 230 233 235 234 235 238 239 241 247 253 251 243 239 240 247 255 247 252 262 280 290 295 309 314 295 289 285 267 277 278 262 258 261 263 268 274 280 277 279 276 273 278 286 284 281 274 279 273 267 272 284
226 219 224 228 229 230 234 236 238 240 243 251 252 236 232 232 240 249 256 262 269 272 276 285 300 311 285 329 323 283 261 270 266 271 269 271 277 271 266 274 284 284 285 287 288 288 287 286 284 275 264 268 277 284
224 219 222 224 225 230 233 236 238 241 245 249 239 224 225 233 240 251 260 277 277 277 279 293 303 280 277 321 314 303 272 259 259 266 270 277 283 272 268 270 301 303 294 288 289 291 288 283 275 276 276 277 284 284
222 222 222 223 226 229 231 233 237 241 241 234 229 233 239 246 254 258 266 266 264 271 272 270 266 286 310 314 316 320 298 277 267 268 274 278 285 280 272 298 300 302 302 296 290 284 282 277 271 266 265 263 264 270
225 224 222 222 224 226 227 231 235 233 225 221 224 235 248 252 250 255 262 262 253 243 239 250 263 289 296 300 305 306 306 294 288 279 285 282 279 265 296 296 296 298 294 292 285 274 270 262 249 250 251 249 252 252
225 223 220 219 219 222 223 228 225 215 210 205 225 223 222 238 250 265 262 255 208 223 243 258 275 281 286 289 292 298 292 262 274 292 291 272 286 299 289 308 309 306 300 306 303 266 249 248 251 240 238 242 239 257
222 220 216 214 215 216 217 220 207 199 196 220 214 208 219 251 263 222 264 229 219 236 247 261 263 301 306 313 315 279 275 278 277 295 268 281 290 315 330 326 325 327 330 341 340 324 277 241 233 234 235 235 249 248
218 214 212 211 211 211 212 207 194 185 179 189 195 221 232 248 227 206 228 223 224 230 237 257 279 291 302 311 305 273 273 267 265 298 278 296 331 337 336 345 357 3 357 5 17 13 57 146 200 224 231 229 230 227
214 212 210 209 208 205 205 192 188 194 189 204 197 211 208 221 208 217 219 209 209 238 291 306 314 302 299 296 247 262 258 260 298 280 287 326 342 343 352 6 19 23 25 28 39 44 65 82 89 102 116 133 137 138
216 212 210 208 206 202 196 190 195 200 183 190 200 217 213 215 225 233 234 230 256 281 293 307 299 274 282 265 251 262 272 298 286 291 322 342 352 10 30 40 48 52 56 58 60 65 76 85 92 95 101 109 120 125
214 212 209 207 202 200 196 194 199 205 202 209 210 216 224 231 233 239 236 257 281 290 293 290 274 268 240 245 252 278 272 275 275 298 328 344 25 33 45 57 61 64 67 71 78 83 87 90 97 103 108 114 124 125
214 209 207 205 201 200 199 199 201 212 219 221 218 209 216 228 242 255 296 294 278 256 235 250 248 243 246 250 262 262 271 264 301 315 329 11 46 44 53 66 73 66 67 77 85 92 98 96 103 107 106 101 106 115
210 209 206 202 201 203 201 201 206 214 225 227 239 232 247 254 264 276 286 273 225 222 226 220 232 216 252 240 250 268 286 307 307 323 39 69 53 62 71 75 74 73 75 83 80 76 79 87 94 101 107 114 116 114
207 202 200 199 200 202 203 203 208 219 227 229 234 242 253 260 267 273 256 236 223 215 221 246 225 225 223 235 256 297 310 306 311 102 96 45 59 82 85 86 77 67 69 74 76 76 83 89 94 100 101 101 106 112
208 203 199 196 199 201 204 208 211 216 229 234 236 244 253 262 267 262 223 224 218 227 235 255 248 249 250 265 290 309 324 135 150 135 116 107 100 94 88 83 78 72 72 75 81 86 91 96 94 89 87 89 89 100
206 201 200 199 199 200 197 215 219 222 223 228 235 238 253 261 270 235 217 223 232 239 242 245 251 267 296 282 276 312 226 151 133 135 128 115 101 88 77 76 76 71 67 66 73 83 90 100 104 101 90 80 87 94
207 204 196 199 199 200 197 197 226 229 230 233 236 241 256 266 247 227 223 227 230 239 246 254 261 270 274 264 271 279 193 175 151 144 137 129 114 105 94 77 63 61 63 62 70 82 108 115 113 106 91 81 92 110
207 202 195 196 203 205 206 205 210 179 199 224 231 238 247 250 242 229 226 226 234 243 246 250 253 255 260 258 258 248 214 202 189 177 171 168 168 158 137 91 53 60 61 79 80 101 133 147 148 125 67 53 66 98
197 200 196 194 203 210 219 206 209 217 217 228 235 228 230 235 233 230 236 237 237 240 247 252 252 252 257 258 251 241 228 215 200 195 194 196 202 214 247 308 356 349 11 143 202 204 202 204 206 205 193 96 39 147
198 196 191 191 199 203 208 212 214 207 201 214 224 225 235 238 234 236 246 249 247 245 248 253 252 251 251 252 247 237 226 221 217 214 214 217 228 238 249 260 299 346 306 278 257 252 245 231 220 212 210 215 225 195
198 197 198 200 201 201 207 209 211 215 222 197 206 215 226 235 239 245 251 255 252 250 245 242 243 246 243 238 235 231 225 220 219 217 224 232 238 239 249 269 284 304 309 305 289 265 242 223 217 217 216 225 242 213
205 202 202 202 202 203 203 208 212 217 221 223 228 234 235 237 240 246 257 258 264 252 240 237 242 243 244 243 242 239 230 223 225 229 231 232 236 240 250 265 274 280 298 307 292 256 225 210 211 216 219 230 234 219
211 199 205 198 194 206 209 211 218 216 217 214 216 219 224 222 237 248 259 268 267 252 246 248 249 248 246 244 244 242 233 229 232 235 237 239 242 247 250 256 263 267 276 285 275 243 227 221 225 231 229 227 224 220
212 209 202 198 198 199 207 214 215 217 220 215 213 220 224 232 241 246 253 259 260 255 248 242 241 245 252 247 246 246 244 241 239 242 239 241 242 243 244 248 251 255 258 261 251 240 242 237 234 234 227 218 218 219
211 200 201 199 200 202 205 208 210 213 215 218 222 227 230 239 246 247 250 258 262 259 259 256 248 248 247 243 241 244 247 247 246 247 245 241 242 239 238 239 241 242 245 245 239 234 232 239 239 229 218 215 219 224
213 205 209 209 209 209 212 213 213 217 224 229 234 237 238 244 249 253 255 258 257 251 255 249 245 236 229 226 234 243 244 242 243 244 245 243 241 236 232 231 231 231 233 235 232 230 228 230 236 236 226 219 216 218
222 214 215 216 221 218 222 225 227 227 228 234 238 239 243 245 246 249 249 245 244 240 242 243 233 232 233 233 235 239 240 238 239 240 243 242 239 236 233 231 230 229 229 230 228 225 222 224 229 227 221 218 219 220
217 215 217 221 225 219 221 225 229 233 236 234 233 234 238 242 244 244 242 242 240 238 236 233 230 230 230 229 230 231 232 234 237 240 243 241 236 232 229 227 228 228 228 229 228 225 223 224 229 234 233 231 228 227
219 215 215 221 225 223 224 228 227 230 231 232 233 231 232 236 241 244 241 239 240 234 231 230 230 229 229 230 231 233 234 237 239 244 245 240 234 228 226 226 227 226 223 221 223 225 226 225 228 233 236 236 236 236
Height
3007 3008 3012 3016 3019 3023 3026 3029 3031 3033 3035 3038 3040 3042 3044 3044 3045 3048 3050 3049 3049 3045 3048 3048 3050 3050 3051 3052 3051 3052 3050 3049 3049 3046 3043 3040 3036 3035 3031 3029 3030 3030 3031 3027 3027 3025 3013 3009 3015 3019 3017 3013 3012 3011
3002 3004 3007 3011 3015 3018 3021 3024 3026 3029 3031 3033 3036 3037 3039 3040 3040 3042 3044 3046 3043 3040 3039 3041 3044 3046 3046 3046 3045 3044 3043 3043 3042 3040 3040 3035 3030 3027 3027 3021 3022 3021 3022 3019 3017 3007 3004 3005 3007 3008 3009 3005 3003 3003
2998 3000 3001 3007 3011 3013 3016 3019 3022 3024 3027 3029 3031 3033 3034 3034 3035 3037 3039 3039 3039 3037 3033 3032 3040 3042 3040 3040 3040 3035 3032 3032 3030 3032 3030 3027 3023 3020 3016 3012 3012 3007 3007 3002 3004 2996 2994 2994 2996 2996 2997 2996 2995 2994
2993 2995 2997 3002 3006 3009 3012 3015 3017 3020 3022 3024 3026 3027 3028 3029 3030 3032 3033 3036 3036 3034 3027 3026 3029 3034 3035 3033 3031 3027 3025 3024 3023 3023 3021 3016 3013 3011 3003 3003 3000 2995 2994 2987 2985 2983 2982 2983 2984 2986 2987 2987 2985 2984
2988 2990 2993 2997 3001 3005 3008 3011 3014 3016 3018 3019 3021 3022 3023 3025 3026 3027 3029 3031 3032 3033 3024 3019 3018 3024 3024 3023 3020 3019 3017 3017 3016 3013 3009 3005 3003 3004 2997 2996 2982 2977 2973 2978 2968 2970 2969 2966 2970 2972 2972 2973 2974 2972
2984 2985 2989 2993 2997 3001 3004 3007 3009 3011 3013 3015 3016 3017 3019 3021 3022 3023 3024 3027 3027 3028 3024 3015 3010 3012 3013 3013 3012 3010 3010 3010 3009 3006 3002 2997 2998 2996 2988 2974 2958 2962 2964 2960 2953 2957 2953 2952 2953 2955 2957 2960 2962 2962
2979 2981 2985 2989 2993 2996 2999 3002 3004 3006 3008 3009 3011 3013 3015 3016 3018 3021 3022 3022 3024 3025 3023 3016 3010 3009 3009 3008 3006 3004 3003 3001 3001 2999 2992 2989 2986 2987 2974 2959 2943 2951 2949 2945 2941 2938 2933 2936 2937 2942 2946 2948 2951 2952
2973 2976 2981 2985 2988 2991 2995 2997 2999 3001 3003 3005 3008 3009 3011 3012 3014 3015 3016 3017 3019 3021 3020 3015 3006 3004 3005 3003 3001 3000 2998 2995 2992 2988 2984 2979 2977 2973 2958 2944 2940 2935 2931 2926 2923 2922 2919 2922 2925 2927 2932 2936 2940 2943
2967 2972 2976 2980 2983 2987 2990 2993 2995 2997 2999 3002 3004 3006 3007 3007 3009 3011 3011 3013 3013 3017 3013 3007 3003 3003 3001 3000 2998 2995 2993 2987 2983 2978 2975 2974 2966 2957 2947 2941 2933 2925 2916 2906 2903 2902 2902 2905 2910 2915 2920 2924 2930 2932
2963 2967 2971 2974 2978 2982 2986 2988 2991 2993 2996 2999 3002 3004 3003 3005 3006 3007 3008 3007 3006 3007 3004 3000 3001 2999 3001 2997 2994 2992 2987 2984 2976 2972 2969 2961 2951 2950 2945 2935 2921 2909 2900 2891 2878 2876 2882 2888 2894 2901 2908 2916 2921 2923
2958 2961 2965 2969 2973 2977 2981 2984 2987 2990 2994 2996 2999 3000 3002 3002 3003 3004 3005 3003 3003 3001 2998 2997 2997 2996 2996 2994 2992 2990 2984 2980 2973 2969 2964 2955 2950 2946 2935 2921 2909 2899 2891 2882 2873 2866 2867 2872 2881 2889 2898 2907 2913 2915
2952 2956 2959 2964 2968 2972 2976 2979 2984 2987 2991 2994 2996 2998 2999 3000 3000 3002 3000 2999 2996 2996 2994 2994 2995 2994 2993 2990 2988 2985 2983 2979 2971 2967 2961 2954 2951 2941 2928 2916 2905 2896 2889 2882 2875 2867 2859 2862 2871 2879 2888 2897 2904 2908
2947 2951 2955 2959 2964 2968 2972 2976 2980 2984 2987 2990 2992 2994 2995 2996 2995 2994 2992 2991 2991 2991 2992 2992 2992 2990 2988 2987 2986 2984 2980 2975 2971 2966 2961 2957 2949 2939 2929 2918 2908 2901 2894 2888 2883 2877 2875 2874 2878 2882 2887 2894 2903 2911
2942 2946 2950 2954 2959 2964 2968 2972 2977 2981 2984 2987 2988 2988 2988 2987 2985 2984 2986 2987 2989 2989 2989 2988 2987 2986 2984 2984 2983 2981 2978 2974 2969 2966 2962 2956 2949 2942 2935 2926 2920 2913 2907 2901 2896 2894 2891 2890 2891 2894 2902 2910 2918 2926
2936 2941 2945 2950 2955 2959 2963 2968 2973 2977 2979 2981 2981 2980 2979 2981 2982 2983 2984 2985 2986 2985 2984 2984 2983 2983 2982 2982 2981 2980 2977 2973 2969 2965 2962 2958 2953 2948 2943 2938 2932 2928 2923 2920 2917 2915 2913 2914 2916 2917 2923 2928 2932 2934
2931 2936 2940 2944 2950 2954 2959 2964 2968 2972 2973 2975 2974 2974 2976 2978 2979 2981 2981 2981 2981 2981 2981 2982 2981 2981 2980 2980 2979 2978 2976 2972 2968 2964 2961 2958 2956 2952 2949 2946 2941 2938 2936 2934 2932 2931 2931 2930 2930 2931 2933 2936 2940 2943
2926 2930 2934 2939 2944 2949 2953 2959 2963 2965 2967 2966 2967 2971 2973 2975 2977 2978 2978 2977 2977 2978 2979 2979 2979 2979 2979 2978 2977 2975 2973 2970 2965 2963 2960 2959 2957 2955 2953 2950 2948 2946 2944 2943 2942 2942 2942 2942 2942 2943 2944 2945 2948 2950
2919 2923 2929 2934 2939 2943 2948 2952 2957 2957 2957 2960 2964 2967 2970 2971 2973 2973 2973 2974 2975 2975 2976 2976 2976 2976 2976 2975 2974 2974 2971 2967 2964 2962 2962 2961 2959 2958 2956 2955 2953 2952 2950 2949 2948 2948 2948 2949 2950 2951 2953 2953 2954 2955
2914 2919 2924 2929 2934 2938 2943 2947 2949 2950 2952 2956 2959 2963 2965 2966 2967 2967 2968 2970 2970 2972 2973 2972 2972 2971 2971 2971 2971 2970 2968 2966 2965 2964 2964 2964 2963 2961 2961 2959 2958 2957 2956 2955 2954 2954 2953 2953 2955 2956 2956 2956 2958 2959
2910 2915 2920 2925 2929 2935 2939 2942 2943 2945 2948 2952 2954 2957 2959 2960 2961 2961 2963 2965 2966 2967 2968 2967 2967 2968 2968 2968 2968 2968 2967 2966 2966 2966 2966 2965 2965 2964 2963 2963 2963 2962 2961 2961 2960 2960 2960 2960 2961 2961 2961 2961 2961 2962
2906 2909 2915 2919 2924 2929 2932 2934 2936 2939 2942 2945 2949 2952 2954 2954 2954 2955 2958 2960 2961 2960 2962 2963 2964 2965 2965 2964 2965 2965 2965 2965 2965 2966 2967 2966 2966 2966 2966 2965 2965 2965 2964 2964 2964 2964 2964 2964 2965 2965 2965 2965 2965 2966
2902 2905 2909 2913 2918 2921 2924 2927 2931 2933 2937 2939 2943 2946 2947 2950 2950 2951 2953 2953 2953 2955 2958 2959 2961 2961 2961 2961 2962 2963 2963 2964 2965 2965 2966 2967 2967 2967 2967 2967 2967 2966 2966 2965 2965 2965 2965 2965 2965 2965 2966 2966 2966 2967
2898 2901 2905 2909 2914 2915 2919 2924 2926 2929 2932 2935 2938 2940 2941 2942 2945 2947 2946 2946 2948 2951 2953 2955 2956 2957 2957 2958 2959 2959 2960 2961 2962 2964 2965 2966 2966 2967 2966 2966 2966 2966 2966 2966 2965 2965 2965 2965 2966 2966 2967 2967 2967 2968
2895 2898 2901 2903 2905 2908 2911 2913 2919 2924 2926 2929 2932 2935 2936 2937 2939 2940 2939 2941 2944 2947 2948 2950 2950 2952 2954 2954 2955 2956 2957 2959 2960 2961 2962 2963 2964 2965 2965 2965 2965 2965 2964 2964 2963 2963 2964 2964 2965 2966 2967 2968 2968 2968
2892 2894 2896 2895 2897 2901 2903 2907 2912 2917 2919 2923 2927 2928 2930 2933 2934 2934 2933 2935 2938 2940 2942 2944 2945 2947 2948 2950 2951 2953 2954 2956 2957 2959 2960 2961 2961 2962 2962 2962 2963 2963 2962 2962 2962 2962 2962 2962 2963 2965 2966 2966 2967 2967
2883 2884 2886 2885 2890 2894 2896 2901 2905 2909 2914 2918 2921 2924 2926 2927 2929 2928 2927 2931 2932 2933 2935 2938 2940 2941 2942 2945 2947 2949 2951 2952 2954 2955 2957 2958 2959 2959 2960 2960 2961 2961 2960 2960 2960 2960 2960 2960 2961 2962 2963 2964 2965 2966
2874 2875 2877 2880 2884 2888 2892 2896 2901 2906 2909 2910 2913 2917 2919 2920 2921 2922 2923 2926 2928 2929 2930 2931 2933 2935 2937 2939 2941 2943 2945 2948 2949 2950 2951 2953 2954 2955 2957 2957 2958 2958 2958 2957 2957 2958 2959 2959 2959 2960 2962 2963 2964 2965
2867 2869 2872 2877 2879 2883 2886 2891 2895 2898 2901 2904 2908 2909 2912 2913 2916 2918 2920 2921 2923 2924 2925 2926 2927 2929 2930 2933 2935 2937 2939 2941 2943 2944 2946 2947 2948 2950 2952 2953 2954 2954 2955 2955 2955 2956 2957 2957 2958 2958 2959 2961 2962 2963
2861 2866 2869 2871 2875 2879 2881 2884 2887 2890 2893 2897 2901 2903 2905 2908 2910 2912 2914 2917 2918 2919 2920 2920 2922 2924 2925 2927 2929 2931 2933 2934 2936 2937 2939 2940 2941 2944 2946 2947 2949 2950 2951 2952 2952 2953 2954 2955 2956 2956 2957 2958 2959 2961
2856 2862 2865 2868 2870 2872 2876 2879 2882 2886 2889 2892 2895 2897 2900 2902 2904 2906 2908 2910 2911 2913 2914 2914 2915 2917 2919 2921 2924 2925 2927 2928 2930 2931 2932 2934 2935 2936 2938 2940 2943 2944 2946 2948 2948 2950 2951 2952 2953 2953 2954 2955 2956 2958
2852 2857 2860 2862 2864 2869 2872 2875 2878 2881 2884 2886 2888 2891 2893 2895 2898 2899 2901 2903 2905 2906 2908 2909 2910 2912 2914 2916 2918 2920 2922 2923 2924 2925 2927 2928 2929 2931 2933 2935 2936 2938 2941 2943 2944 2946 2947 2948 2949 2950 2951 2952 2953 2955
2845 2848 2853 2856 2859 2864 2867 2869 2872 2874 2876 2879 2881 2884 2886 2888 2890 2893 2894 2896 2898 2901 2903 2904 2906 2908 2910 2912 2914 2916 2917 2918 2919 2920 2922 2923 2924 2925 2928 2929 2931 2933 2935 2938 2940 2942 2943 2945 2946 2947 2948 2949 2950 2951
2840 2844 2847 2851 2853 2856 2861 2864 2865 2867 2870 2871 2874 2877 2878 2881 2882 2885 2888 2890 2893 2895 2897 2899 2901 2903 2905 2907 2909 2911 2912 2913 2914 2916 2916 2917 2918 2920 2922 2925 2927 2928 2931 2933 2935 2938 2940 2941 2942 2943 2944 2945 2946 2948